Palmdale, CA

5:34 PM PDT on October 20, 2017 (GMT -0700)
Palmdale Af Plant 42

Weather History for KPMD - April, 2013

Change the Weather History Date:

Monday, April 22, 2013

  Actual Average Record
Temperature  
Mean Temperature 73 °F 60 °F  
Max Temperature 87 °F 74 °F 96 °F (1949)
Min Temperature 59 °F 45 °F 28 °F (1963)
Degree Days  
Heating Degree Days 0 6  
Month to date heating degree days 104 188  
Since 1 July heating degree days 2514 2809  
Cooling Degree Days 8 1  
Month to date cooling degree days 23 7  
Year to date cooling degree days 30 9  
Growing Degree Days 24 (Base 50)    
Moisture  
Dew Point 31 °F    
Average Humidity 24    
Maximum Humidity 37    
Minimum Humidity 11    
Precipitation  
Precipitation 0.00 in 0.02 in 0.05 in (1955)
Month to date precipitation 0.00 0.37  
Year to date precipitation 0.71 4.88  
Since 1 July precipitation 1.00  
Snow  
Snow 0.00 in - T in (1960)
Month to date snowfall 0.0  
Since 1 July snowfall 0.0  
Snow Depth 0.00 in    
Sea Level Pressure  
Sea Level Pressure 29.85 in    
Wind  
Wind Speed 13 mph (SW)    
Max Wind Speed 25 mph    
Max Gust Speed 29 mph    
Visibility 10 miles    
Events      
T = Trace of Precipitation, MM = Missing Value Source: NWS Daily Summary

Daily Weather History Graph

Daily Weather History Graph

Search for Another Location

Airport or City:

Trip Planner

Search our weather history database for the weather conditions in past years. The results will help you decide how hot, cold, wet, or windy it might be!

Date:

Astronomy

Apr. 22, 2013 Rise Set
Actual Time 6:11 AM PDT 7:30 PM PDT
Civil Twilight 5:45 AM PDT 7:56 PM PDT
Nautical Twilight 5:14 AM PDT 8:28 PM PDT
Astronomical Twilight 4:41 AM PDT 9:01 PM PDT
Moon 4:31 PM PDT (4/22) 4:00 AM PDT (4/22)
Length of Visible Light 14h 11m
Length of Day
13h 18m
Waxing Gibbous, 88% of the Moon is Illuminated
Apr 22
Waxing Gibbous
Apr 25
Full
May 2
Last Quarter
May 9
New
May 17
First Quarter

Hourly Weather History & Observations

Time (PDT) Temp. Dew Point Humidity Pressure Visibility Wind Dir Wind Speed Gust Speed Precip Events Conditions
12:53 AM 66.0 °F 26.1 °F 22% 29.93 in 10.0 mi SW 8.1 mph - N/A   Clear
1:53 AM 64.0 °F 23.0 °F 21% 29.91 in 10.0 mi SW 12.7 mph - N/A   Clear
2:53 AM 63.0 °F 19.9 °F 19% 29.89 in 10.0 mi SW 11.5 mph - N/A   Clear
3:53 AM 62.1 °F 23.0 °F 22% 29.88 in 10.0 mi SSW 10.4 mph - N/A   Clear
4:53 AM 61.0 °F 28.0 °F 29% 29.88 in 10.0 mi SW 10.4 mph - N/A   Clear
5:53 AM 62.1 °F 27.0 °F 26% 29.88 in 10.0 mi SSW 11.5 mph - N/A   Clear
6:53 AM 62.1 °F 28.9 °F 29% 29.90 in 10.0 mi SW 8.1 mph - N/A   Clear
7:53 AM 69.1 °F 27.0 °F 21% 29.91 in 10.0 mi SSW 3.5 mph - N/A   Clear
8:53 AM 73.0 °F 27.0 °F 18% 29.91 in 10.0 mi SSW 4.6 mph - N/A   Clear
9:53 AM 77.0 °F 28.9 °F 17% 29.91 in 10.0 mi West 6.9 mph - N/A   Clear
10:53 AM 80.1 °F 27.0 °F 14% 29.90 in 10.0 mi West 9.2 mph - N/A   Clear
11:53 AM 82.0 °F 25.0 °F 12% 29.88 in 10.0 mi Variable 5.8 mph - N/A   Clear
12:53 PM 84.9 °F 24.1 °F 11% 29.84 in 10.0 mi West 6.9 mph 16.1 mph N/A   Clear
1:53 PM 86.0 °F 30.9 °F 14% 29.82 in 10.0 mi SW 15.0 mph 23.0 mph N/A   Clear
2:53 PM 84.0 °F 33.1 °F 16% 29.81 in 10.0 mi WSW 18.4 mph 27.6 mph N/A   Clear
3:53 PM 82.9 °F 36.0 °F 19% 29.80 in 10.0 mi SW 17.3 mph 25.3 mph N/A   Clear
4:53 PM 81.0 °F 39.9 °F 23% 29.79 in 10.0 mi WSW 20.7 mph 27.6 mph N/A   Clear
5:53 PM 78.1 °F 42.1 °F 28% 29.79 in 10.0 mi WSW 24.2 mph - N/A   Clear
6:53 PM 72.0 °F 39.9 °F 31% 29.80 in 10.0 mi WSW 23.0 mph - N/A   Clear
7:53 PM 68.0 °F 41.0 °F 37% 29.81 in 10.0 mi SW 18.4 mph - N/A   Clear
8:53 PM 66.0 °F 39.0 °F 37% 29.82 in 10.0 mi SW 18.4 mph - N/A   Clear
9:53 PM 66.9 °F 35.1 °F 31% 29.82 in 10.0 mi SW 11.5 mph - N/A   Clear
10:53 PM 66.9 °F 37.0 °F 33% 29.81 in 10.0 mi WSW 17.3 mph - N/A   Clear
11:53 PM 64.9 °F 37.9 °F 37% 29.81 in 10.0 mi SW 11.5 mph - N/A   Clear